TimeEDT,TemperatureF,Dew PointF,Humidity,Sea Level PressureIn,VisibilityMPH,Wind Direction,Wind SpeedMPH,Gust SpeedMPH,PrecipitationIn,Events,Conditions,WindDirDegrees,DateUTC
12:17 AM,75.2,75.2,100,30.00,10.0,Calm,Calm,-,N/A,,Scattered Clouds,0,2013-07-13 04:17:00
12:58 AM,77.0,73.9,90,30.01,10.0,SE,3.5,-,N/A,,Scattered Clouds,140,2013-07-13 04:58:00
1:13 AM,77.0,73.4,89,30.01,10.0,SE,3.5,-,N/A,,Mostly Cloudy,130,2013-07-13 05:13:00
1:29 AM,77.0,73.4,89,30.01,10.0,Calm,Calm,-,N/A,,Scattered Clouds,0,2013-07-13 05:29:00
1:58 AM,73.9,73.0,97,30.01,10.0,ESE,4.6,-,N/A,,Partly Cloudy,120,2013-07-13 05:58:00
2:58 AM,73.9,73.9,100,30.01,10.0,Calm,Calm,-,N/A,,Clear,0,2013-07-13 06:58:00
3:45 AM,75.2,73.4,94,30.01,1.8,Variable,6.9,-,0.21,Rain,Heavy Rain,0,2013-07-13 07:45:00
3:55 AM,75.2,75.2,100,30.01,4.0,Calm,Calm,-,0.23,Rain,Light Rain,0,2013-07-13 07:55:00
3:58 AM,75.9,75.0,97,30.02,9.0,Calm,Calm,-,0.23,,Overcast,0,2013-07-13 07:58:00
4:51 AM,75.2,75.2,100,30.03,10.0,SE,6.9,-,0.01,Rain,Light Rain,130,2013-07-13 08:51:00
4:58 AM,75.9,75.0,97,30.04,10.0,SE,6.9,-,0.01,Rain,Light Rain,140,2013-07-13 08:58:00
5:58 AM,77.0,75.0,94,30.05,10.0,SE,5.8,-,0.00,,Overcast,140,2013-07-13 09:58:00
6:58 AM,75.9,73.9,94,30.06,8.0,South,4.6,-,0.01,,Scattered Clouds,180,2013-07-13 10:58:00
7:58 AM,78.1,73.9,87,30.09,10.0,SSE,20.7,29.9,0.01,,Mostly Cloudy,160,2013-07-13 11:58:00
8:11 AM,77.0,73.4,89,30.08,8.0,South,12.7,21.9,N/A,,Mostly Cloudy,170,2013-07-13 12:11:00
8:58 AM,81.0,73.9,79,30.10,10.0,SSE,10.4,-,N/A,,Scattered Clouds,150,2013-07-13 12:58:00
9:58 AM,82.0,75.9,82,30.11,9.0,SSE,10.4,-,N/A,,Partly Cloudy,150,2013-07-13 13:58:00
10:58 AM,82.0,73.9,76,30.12,9.0,SE,16.1,28.8,0.00,,Mostly Cloudy,130,2013-07-13 14:58:00
11:58 AM,84.0,75.0,74,30.13,10.0,SE,10.4,23.0,N/A,,Partly Cloudy,140,2013-07-13 15:58:00
12:58 PM,84.9,73.0,67,30.14,10.0,SSE,18.4,23.0,N/A,,Clear,150,2013-07-13 16:58:00
1:58 PM,84.9,75.0,72,30.14,10.0,ESE,12.7,19.6,N/A,,Partly Cloudy,120,2013-07-13 17:58:00
2:58 PM,84.0,73.0,69,30.14,10.0,SE,16.1,24.2,N/A,,Mostly Cloudy,140,2013-07-13 18:58:00
3:58 PM,84.0,73.0,69,30.15,10.0,SSE,15.0,25.3,N/A,,Overcast,150,2013-07-13 19:58:00
4:58 PM,84.0,75.0,74,30.14,10.0,SE,11.5,19.6,0.00,,Overcast,140,2013-07-13 20:58:00
5:05 PM,84.2,75.2,74,30.14,9.0,SSE,17.3,20.7,N/A,,Overcast,160,2013-07-13 21:05:00
5:34 PM,82.4,75.2,79,30.15,9.0,SSE,15.0,21.9,N/A,,Overcast,160,2013-07-13 21:34:00
5:58 PM,82.9,73.9,74,30.15,9.0,SSE,15.0,20.7,N/A,,Overcast,150,2013-07-13 21:58:00
6:58 PM,78.1,73.0,84,30.17,9.0,South,13.8,21.9,0.00,,Scattered Clouds,170,2013-07-13 22:58:00
7:58 PM,79.0,73.0,82,30.18,8.0,SSE,6.9,-,N/A,,Clear,150,2013-07-13 23:58:00
8:58 PM,80.1,72.0,76,30.18,10.0,SE,6.9,-,N/A,,Clear,140,2013-07-14 00:58:00
9:58 PM,79.0,72.0,79,30.20,10.0,SE,8.1,-,N/A,,Clear,140,2013-07-14 01:58:00
10:58 PM,79.0,73.0,82,30.21,10.0,SE,5.8,-,N/A,,Clear,130,2013-07-14 02:58:00
11:58 PM,79.0,73.9,84,30.22,10.0,SE,6.9,-,N/A,,Clear,130,2013-07-14 03:58:00